Regional Weather Roundup
Issued by NWS

Home | Current Version | Previous Version | Graphics & Text | Print | Product List | Glossary On
Versions: 1 2 3 4 5 6 7 8 9 10 11 12 13 14 15 16 17 18 19 20 21 22 23 24 25 26 27 28 29 30 31 32 33 34 35 36 37 38 39 40 41 42 43 44 45 46 47 48 49 50
000
ASUS43 KLOT 231104
RWRIL

ILLINOIS REGIONAL WEATHER ROUNDUP
NATIONAL WEATHER SERVICE CHICAGO/ROMEOVILLE IL
600 AM CDT TUE AUG 23 2016

NOTE: "FAIR" INDICATES FEW OR NO CLOUDS BELOW 12,000 FEET WITH NO
SIGNIFICANT WEATHER AND/OR OBSTRUCTIONS TO VISIBILITY.

* THESE STATIONS ARE NOT UNDER NWS QUALITY CONTROL. THEY ALSO MAY NOT
  REPORT WEATHER SUCH AS PRECIPITATION OR FOG.

ILZ001-002-007-009-015-016-024-231200-
NORTHWEST ILLINOIS

CITY           SKY/WX    TMP DP  RH WIND       PRES   REMARKS
MOLINE         CLEAR     62  57  83 S5        30.12S
STERLING*      CLEAR     60  58  92 SE3       30.15R
SAVANNA*       CLEAR     58  57  94 CALM      30.13S
$$

ILZ003-004-008-010-011-017-018-231200-
NORTH CENTRAL ILLINOIS

CITY           SKY/WX    TMP DP  RH WIND       PRES   REMARKS
ROCKFORD       PTCLDY    60  56  86 S3        30.18R
FREEPORT*      PTCLDY    58  56  92 S7        30.16S
ROCHELLE*      CLEAR     57  56  96 S5        30.17R
$$

ILZ005-006-012>014-019>023-231200-
NORTHEAST ILLINOIS

CITY           SKY/WX    TMP DP  RH WIND       PRES   REMARKS
CHICAGO-OHARE  PTCLDY    60  57  89 S6        30.18S
CHICAGO-MIDWAY PTCLDY    65  57  75 S5        30.19R
AURORA         CLEAR     57  55  93 CALM      30.18S
LANSING*       CLEAR     59  56  88 CALM      30.20S
JOLIET*        CLEAR     62  59  89 CALM      30.19S
WAUKEGAN       CLEAR     62  58  86 SW6       30.17S
DUPAGE AIRPORT CLEAR     60  56  86 S3        30.18R
KANKAKEE*      CLEAR     58  56  94 CALM      30.21R
WHEELING       CLEAR     61  57  87 S3        30.19S
MORRIS*        CLEAR     58  56  95 CALM      30.18R
ROMEOVILLE*    CLEAR     58  55  89 S6        30.19R
NORTHERLY ISL    N/A     66  57  72 S8          N/A
$$

LMZ740>746-231200-
SOUTHERN LAKE MICHIGAN

STATION/POSITION SKY/WX   TEMP    WIND        PRES    VSBY  WAVE
                          AIR SEA DIR/SP/G                  HT/PER
                          (F)     (DEG/KT/KT) (MB)    (MI)  (FT/S)
SOUTHERN BUOY              73 75  190/ 16/ 17 1021.2          3/ 5
WILMETTE HARBOR            69 71  220/ 10/ 12   N/A           1/ 3
HARRISON CRIB              69     200/ 12/ 13   N/A
BURNHAM HARBOR             66     190/  6/  7   N/A
CALUMET HARBOR             64     170/  5/  6 1021.8S
BURNS HARBOR               64     190/  7/ 12 1023.0S
MICHIGAN CITY              64     140/ 10/ 11   N/A
MICHIGAN CITY 6N           67 73  190/ 10/ 14   N/A           1/ 2
ST. JOSEPH                 69 74  180/ 10/ 14 1022.8R         2/ 3
$$

ILZ025>027-034>036-040-047-049-050-058-095>099-231200-
WEST-CENTRAL ILLINOIS

CITY           SKY/WX    TMP DP  RH WIND       PRES   REMARKS
QUINCY         CLEAR     61  60  97 SE5       30.14R
GALESBURG*     CLEAR     60  57  91 SE3       30.14S
MACOMB*        CLEAR     58  57  97 S6        30.17R
JACKSONVILLE*  CLEAR     60  58  92 SE6       30.16S
PITTSFIELD*    CLEAR     60  59  97 SE3       30.16S
$$

ILZ028>032-037-038-041>044-048-051>054-059>061-231200-
CENTRAL ILLINOIS

CITY           SKY/WX    TMP DP  RH WIND       PRES   REMARKS
PONTIAC        CLEAR     58  58  99 SE3       30.20R
BLOOMINGTON    CLEAR     59  57  93 S6        30.21R
DECATUR        CLEAR     59  56  89 CALM      30.20R
PEORIA         CLEAR     62  59  90 CALM      30.17R
LACON*         CLEAR     59  56  90 SE3       30.17R
LINCOLN*       CLEAR     59  58  98 CALM      30.19R
SPRINGFIELD    CLEAR     62  59  90 S6        30.18R
TAYLORVILLE    CLEAR     59  58  97 SE5       30.19S
$$

ILZ033-039-045-046-055>057-062-063-231200-
EAST-CENTRAL ILLINOIS

CITY           SKY/WX    TMP DP  RH WIND       PRES   REMARKS
CHAMPAIGN      CLEAR     57  54  89 SE5       30.21R
RANTOUL*       CLEAR     59  57  93 SE3       30.21S
MATTOON        CLEAR     59  57  93 S5        30.21R
PARIS*         CLEAR     58  57  99 CALM      30.23R
$$

ILZ079-100>102-231200-
SOUTHWEST ILLINOIS

CITY           SKY/WX    TMP DP  RH WIND       PRES   REMARKS
ALTON          CLEAR     58  58  98 E3        30.18R
BELLEVILLE     CLEAR     60  60 100 CALM      30.18R
CAHOKIA*       CLEAR     62  59  90 S3        30.17R
SPARTA*        CLOUDY    63  62  96 SE5       30.20R
$$

ILZ064>066-069>071-074>076-080>082-084>086-088>090-092>094-231200-
SOUTH-CENTRAL ILLINOIS

CITY           SKY/WX    TMP DP  RH WIND       PRES   REMARKS
CARBONDALE     CLOUDY    62  59  90 CALM      30.19R
EFFINGHAM*     PTCLDY    59  59 100 CALM      30.23R
MARION         CLOUDY    64  63  94 SE5       30.20R
MT. VERNON     CLEAR     57  52  82 CALM      30.21R
CENTRALIA*     CLEAR     61  60  96 CALM      30.19S
SALEM*         CLEAR     64  60  88 CALM      30.20S
$$

ILZ067-068-072-073-078-083-087-091-231200-
SOUTHEAST ILLINOIS

CITY           SKY/WX    TMP DP  RH WIND       PRES   REMARKS
LAWRENCEVILLE  CLEAR     59  58  96 E3        30.23R
FLORA*         CLEAR     58  58  97 CALM      30.22R FOG
FAIRFIELD*     CLEAR     59  59  99 CALM      30.20R
HARRISBURG*    CLEAR     60  59  99 CALM      30.22R
ROBINSON*        N/A     53  53 100 CALM      30.23R FOG
CARMI*         CLEAR     58  58 100 CALM      30.21R FOG
$$

ABBREVIATIONS USED IN REMARKS
   TC - TEMPERATURE IN CELSIUS
  WCI - WIND CHILL INDEX
   HX - HEAT INDEX
  VSB - VISIBILITY
$$





USA.gov is the U.S. government's official web portal to all federal, state and local government web resources and services.